GFSNIL_prec_precacc12_231.txt.gz
Total_Precipitation_Accumulation
0.08 0.26 0.22 0.14 0.09 0.06 0.02 0.02 0.03 0.11 0.10 0.08 0.08 0.02 0.07 0.05 0.04 0.03 0.07 0.05 0.04 0.07
0.14 0.25 0.23 0.15 0.15 0.10 0.01 0.01 0.01 0.03 0.06 0.04 0.06 0.08 0.04 0.04 0.01 0.07 0.03 0.02 0.01 0.01
0.19 0.12 0.09 0.12 0.27 0.29 0.12 0.05 0.05 0.03 0.02 0.01 0.02 0.02 0.03 0.00 0.00 0.01 0.03 0.05 0.04 0.01
0.11 0.06 0.03 0.02 0.08 0.13 0.13 0.20 0.12 0.08 0.07 0.05 0.02 0.02 0.04 0.02 0.03 0.05 0.02 0.02 0.02 0.01
0.00 0.00 0.01 0.01 0.02 0.03 0.09 0.22 0.24 0.17 0.14 0.19 0.17 0.12 0.02 0.00 0.00 0.02 0.02 0.01 0.03 0.01
0.00 0.00 0.00 0.01 0.01 0.03 0.07 0.09 0.13 0.16 0.17 0.23 0.26 0.21 0.12 0.08 0.05 0.03 0.04 0.07 0.10 0.05
0.00 0.00 0.00 0.00 0.00 0.00 0.00 0.01 0.02 0.07 0.16 0.18 0.24 0.23 0.23 0.21 0.14 0.15 0.12 0.16 0.21 0.12
0.00 0.00 0.00 0.00 0.00 0.00 0.00 0.00 0.00 0.01 0.03 0.06 0.12 0.16 0.29 0.28 0.31 0.28 0.24 0.23 0.20 0.09
0.00 0.00 0.00 0.00 0.00 0.00 0.00 0.00 0.00 0.00 0.00 0.00 0.00 0.02 0.09 0.12 0.15 0.20 0.23 0.23 0.22 0.22
0.00 0.00 0.00 0.00 0.00 0.00 0.00 0.00 0.00 0.00 0.00 0.00 0.00 0.00 0.00 0.01 0.01 0.02 0.06 0.11 0.13 0.10
0.00 0.00 0.00 0.00 0.00 0.00 0.00 0.00 0.00 0.00 0.00 0.00 0.00 0.00 0.00 0.00 0.00 0.00 0.00 0.01 0.04 0.07
0.00 0.00 0.00 0.00 0.00 0.00 0.00 0.00 0.00 0.00 0.00 0.01 0.00 0.00 0.00 0.00 0.00 0.00 0.00 0.00 0.00 0.01
0.00 0.00 0.00 0.00 0.00 0.00 0.00 0.00 0.00 0.00 0.00 0.00 0.00 0.00 0.00 0.00 0.00 0.00 0.00 0.00 0.00 0.00
0.00 0.00 0.00 0.00 0.00 0.00 0.00 0.00 0.00 0.01 0.01 0.00 0.00 0.00 0.00 0.00 0.00 0.01 0.01 0.00 0.00 0.00

GFSNIL_prec_precacc12_234.txt.gz
Total_Precipitation_Accumulation
0.08 0.26 0.23 0.20 0.19 0.06 0.02 0.01 0.02 0.09 0.05 0.04 0.06 0.02 0.04 0.02 0.02 0.02 0.05 0.04 0.05 0.08
0.17 0.29 0.24 0.18 0.19 0.12 0.02 0.01 0.01 0.03 0.06 0.04 0.06 0.08 0.03 0.02 0.01 0.05 0.02 0.01 0.03 0.05
0.20 0.15 0.13 0.20 0.29 0.29 0.13 0.08 0.11 0.04 0.02 0.01 0.02 0.02 0.03 0.00 0.02 0.01 0.01 0.00 0.01 0.03
0.11 0.06 0.03 0.03 0.09 0.13 0.13 0.20 0.13 0.09 0.06 0.05 0.02 0.02 0.04 0.02 0.03 0.05 0.03 0.00 0.01 0.01
0.00 0.00 0.00 0.01 0.02 0.03 0.09 0.22 0.24 0.17 0.14 0.19 0.17 0.12 0.02 0.01 0.00 0.02 0.01 0.01 0.07 0.05
0.00 0.00 0.00 0.00 0.01 0.03 0.07 0.09 0.13 0.16 0.17 0.23 0.26 0.21 0.13 0.08 0.05 0.02 0.01 0.03 0.05 0.03
0.00 0.00 0.00 0.00 0.00 0.00 0.00 0.01 0.02 0.06 0.16 0.17 0.23 0.22 0.23 0.21 0.13 0.14 0.10 0.16 0.15 0.09
0.00 0.00 0.00 0.00 0.00 0.00 0.00 0.00 0.00 0.00 0.02 0.04 0.09 0.12 0.23 0.22 0.26 0.25 0.23 0.23 0.18 0.08
0.00 0.00 0.00 0.00 0.00 0.00 0.00 0.00 0.00 0.00 0.00 0.00 0.00 0.01 0.02 0.05 0.09 0.13 0.16 0.17 0.17 0.19
0.00 0.00 0.00 0.00 0.00 0.00 0.00 0.00 0.00 0.00 0.00 0.00 0.00 0.00 0.00 0.00 0.00 0.01 0.03 0.06 0.07 0.05
0.00 0.00 0.00 0.00 0.00 0.00 0.00 0.00 0.00 0.00 0.00 0.00 0.00 0.00 0.00 0.00 0.00 0.00 0.00 0.00 0.02 0.04
0.00 0.00 0.00 0.00 0.00 0.00 0.00 0.00 0.00 0.00 0.00 0.01 0.00 0.00 0.00 0.00 0.00 0.00 0.00 0.00 0.00 0.00
0.00 0.00 0.00 0.00 0.00 0.00 0.00 0.00 0.00 0.00 0.00 0.00 0.00 0.00 0.00 0.00 0.00 0.00 0.00 0.00 0.00 0.00
0.00 0.00 0.00 0.00 0.00 0.00 0.00 0.00 0.01 0.01 0.01 0.01 0.00 0.00 0.00 0.00 0.00 0.01 0.01 0.00 0.00 0.00

GFSNIL_prec_precacc12_237.txt.gz
Total_Precipitation_Accumulation
0.08 0.16 0.15 0.17 0.19 0.07 0.02 0.00 0.00 0.07 0.04 0.02 0.05 0.01 0.03 0.01 0.00 0.01 0.07 0.10 0.06 0.08
0.17 0.33 0.26 0.23 0.36 0.27 0.10 0.13 0.03 0.02 0.05 0.04 0.05 0.08 0.03 0.00 0.00 0.03 0.01 0.01 0.03 0.05
0.25 0.25 0.20 0.35 0.33 0.31 0.22 0.19 0.28 0.07 0.02 0.01 0.02 0.02 0.03 0.00 0.02 0.01 0.01 0.00 0.01 0.03
0.09 0.06 0.02 0.05 0.10 0.13 0.12 0.19 0.14 0.10 0.06 0.04 0.02 0.02 0.04 0.02 0.03 0.05 0.03 0.00 0.01 0.01
0.00 0.00 0.00 0.01 0.02 0.03 0.04 0.12 0.20 0.14 0.12 0.18 0.16 0.12 0.02 0.01 0.00 0.02 0.01 0.01 0.07 0.06
0.00 0.00 0.00 0.00 0.00 0.01 0.03 0.07 0.10 0.10 0.10 0.16 0.20 0.17 0.12 0.08 0.05 0.02 0.02 0.03 0.04 0.02
0.00 0.00 0.00 0.00 0.00 0.00 0.00 0.00 0.01 0.03 0.07 0.07 0.12 0.13 0.16 0.15 0.09 0.11 0.09 0.16 0.15 0.09
0.00 0.00 0.00 0.00 0.00 0.00 0.00 0.00 0.00 0.00 0.00 0.01 0.03 0.04 0.12 0.12 0.13 0.12 0.13 0.15 0.11 0.07
0.00 0.00 0.00 0.00 0.00 0.00 0.00 0.00 0.00 0.00 0.00 0.00 0.00 0.00 0.00 0.01 0.03 0.05 0.06 0.06 0.09 0.11
0.00 0.00 0.00 0.00 0.00 0.00 0.00 0.00 0.00 0.00 0.00 0.00 0.00 0.00 0.00 0.00 0.00 0.00 0.00 0.00 0.01 0.01
0.00 0.00 0.00 0.00 0.00 0.00 0.00 0.00 0.00 0.00 0.00 0.00 0.00 0.00 0.00 0.00 0.00 0.00 0.00 0.00 0.00 0.00
0.00 0.00 0.00 0.00 0.00 0.00 0.00 0.00 0.00 0.00 0.00 0.01 0.00 0.00 0.00 0.00 0.00 0.00 0.00 0.00 0.00 0.00
0.00 0.00 0.00 0.00 0.00 0.00 0.00 0.00 0.00 0.00 0.00 0.00 0.00 0.00 0.00 0.00 0.00 0.00 0.00 0.00 0.00 0.00
0.00 0.00 0.00 0.00 0.00 0.00 0.00 0.00 0.00 0.01 0.01 0.01 0.00 0.00 0.00 0.00 0.00 0.01 0.01 0.00 0.00 0.00

GFSNIL_prec_precacc12_240.txt.gz
Total_Precipitation_Accumulation
0.02 0.04 0.03 0.16 0.19 0.10 0.07 0.05 0.12 0.04 0.00 0.00 0.00 0.00 0.00 0.00 0.00 0.00 0.05 0.09 0.10 0.08
0.08 0.21 0.17 0.36 0.53 0.40 0.25 0.21 0.09 0.03 0.00 0.00 0.00 0.00 0.00 0.00 0.00 0.00 0.00 0.00 0.02 0.05
0.30 0.24 0.33 0.62 0.42 0.31 0.19 0.21 0.33 0.12 0.01 0.00 0.00 0.00 0.00 0.00 0.02 0.01 0.00 0.00 0.00 0.02
0.02 0.03 0.04 0.09 0.11 0.06 0.06 0.15 0.10 0.13 0.14 0.06 0.02 0.00 0.00 0.00 0.01 0.01 0.02 0.00 0.01 0.00
0.00 0.00 0.00 0.00 0.00 0.00 0.01 0.01 0.02 0.02 0.09 0.21 0.24 0.12 0.05 0.04 0.01 0.01 0.00 0.01 0.05 0.05
0.00 0.00 0.00 0.00 0.00 0.00 0.00 0.00 0.00 0.01 0.01 0.01 0.03 0.03 0.05 0.07 0.07 0.09 0.08 0.06 0.03 0.01
0.00 0.00 0.00 0.00 0.00 0.00 0.00 0.00 0.00 0.00 0.00 0.00 0.01 0.02 0.03 0.02 0.00 0.02 0.03 0.12 0.10 0.06
0.00 0.00 0.00 0.00 0.00 0.00 0.00 0.00 0.00 0.00 0.00 0.00 0.00 0.00 0.02 0.02 0.02 0.03 0.02 0.02 0.04 0.04
0.00 0.00 0.00 0.00 0.00 0.00 0.00 0.00 0.00 0.00 0.00 0.00 0.00 0.00 0.00 0.00 0.00 0.00 0.00 0.00 0.00 0.00
0.00 0.00 0.00 0.00 0.00 0.00 0.00 0.00 0.00 0.00 0.00 0.00 0.00 0.00 0.00 0.00 0.00 0.00 0.00 0.00 0.00 0.00
0.00 0.00 0.00 0.00 0.00 0.00 0.00 0.00 0.00 0.00 0.00 0.00 0.00 0.00 0.00 0.00 0.00 0.00 0.00 0.00 0.00 0.00
0.00 0.00 0.00 0.00 0.00 0.00 0.00 0.00 0.00 0.00 0.00 0.00 0.00 0.00 0.00 0.00 0.00 0.00 0.00 0.00 0.00 0.00
0.00 0.00 0.00 0.00 0.00 0.00 0.00 0.00 0.00 0.00 0.00 0.00 0.00 0.00 0.00 0.00 0.00 0.00 0.00 0.00 0.00 0.00
0.00 0.00 0.00 0.00 0.00 0.00 0.00 0.00 0.00 0.00 0.01 0.00 0.00 0.00 0.00 0.00 0.00 0.00 0.00 0.00 0.00 0.00

GFSNIL_prec_precacc12_246.txt.gz
Total_Precipitation_Accumulation
0.01 0.01 0.06 0.22 0.20 0.25 0.25 0.19 0.22 0.04 0.01 0.02 0.05 0.03 0.01 0.01 0.00 0.00 0.03 0.08 0.07 0.11
0.04 0.09 0.31 0.46 0.58 0.65 0.35 0.27 0.12 0.04 0.00 0.02 0.06 0.05 0.08 0.04 0.00 0.00 0.00 0.01 0.01 0.10
0.35 0.33 0.46 0.46 0.28 0.26 0.29 0.25 0.40 0.22 0.04 0.09 0.03 0.06 0.07 0.07 0.01 0.01 0.01 0.00 0.00 0.01
0.15 0.24 0.20 0.16 0.15 0.09 0.05 0.14 0.17 0.17 0.17 0.33 0.19 0.10 0.05 0.09 0.09 0.07 0.09 0.03 0.01 0.00
0.04 0.02 0.01 0.01 0.01 0.00 0.00 0.00 0.02 0.03 0.10 0.27 0.30 0.31 0.34 0.29 0.27 0.19 0.23 0.21 0.09 0.08
0.03 0.00 0.00 0.00 0.00 0.00 0.00 0.00 0.00 0.00 0.01 0.03 0.08 0.14 0.23 0.43 0.56 0.54 0.50 0.34 0.25 0.24
0.01 0.00 0.00 0.00 0.00 0.00 0.00 0.00 0.00 0.00 0.00 0.00 0.00 0.00 0.00 0.00 0.03 0.10 0.18 0.30 0.39 0.31
0.00 0.00 0.00 0.00 0.00 0.00 0.00 0.00 0.00 0.00 0.00 0.00 0.00 0.00 0.00 0.00 0.00 0.00 0.00 0.00 0.01 0.04
0.00 0.00 0.00 0.00 0.00 0.00 0.00 0.00 0.00 0.00 0.00 0.00 0.00 0.00 0.00 0.00 0.00 0.00 0.00 0.00 0.00 0.00
0.00 0.00 0.00 0.00 0.00 0.00 0.00 0.00 0.00 0.00 0.00 0.00 0.00 0.00 0.00 0.00 0.00 0.00 0.00 0.00 0.00 0.00
0.00 0.00 0.00 0.00 0.00 0.00 0.00 0.00 0.00 0.00 0.00 0.00 0.00 0.00 0.00 0.00 0.00 0.00 0.00 0.00 0.00 0.00
0.01 0.00 0.00 0.00 0.00 0.00 0.00 0.00 0.00 0.00 0.00 0.00 0.00 0.00 0.00 0.00 0.00 0.00 0.00 0.00 0.00 0.00
0.03 0.01 0.01 0.00 0.00 0.00 0.00 0.00 0.00 0.00 0.00 0.00 0.00 0.00 0.00 0.00 0.00 0.00 0.00 0.00 0.00 0.00
0.04 0.02 0.02 0.01 0.00 0.00 0.00 0.00 0.00 0.00 0.00 0.00 0.00 0.00 0.00 0.00 0.00 0.00 0.00 0.00 0.00 0.00